| time (UTC) | temp F | wind direction | speed MPH | gust MPH | rain 1hr in | rain 24hr in | rain mn in | humidity % | barometer mb |
| 20260902234518 | 66 | 225 | 5.0 | 9.0 | 0.00 | 0.01 | 0.00 | 84 | 1018.6 |
| 20260902233520 | 66 | 248 | 5.0 | 12.0 | 0.00 | 0.01 | 0.00 | 83 | 1018.6 |
| 20260902232521 | 66 | 225 | 7.0 | 13.0 | 0.00 | 0.01 | 0.00 | 83 | 1018.6 |
| 20260902231522 | 66 | 248 | 6.0 | 12.0 | 0.00 | 0.01 | 0.00 | 83 | 1018.8 |
| 20260902230521 | 66 | 225 | 4.0 | 8.0 | 0.00 | 0.01 | 0.00 | 83 | 1018.7 |
| 20260902225522 | 66 | 225 | 5.0 | 11.0 | 0.00 | 0.01 | 0.01 | 83 | 1018.6 |
| 20260902224520 | 66 | 225 | 5.0 | 10.0 | 0.00 | 0.01 | 0.01 | 83 | 1018.7 |
| 20260902223520 | 66 | 225 | 6.0 | 14.0 | 0.00 | 0.01 | 0.01 | 82 | 1018.7 |
| 20260902222539 | 66 | 225 | 5.0 | 11.0 | 0.00 | 0.01 | 0.01 | 82 | 1019.0 |
| 20260902221518 | 66 | 225 | 6.0 | 11.0 | 0.00 | 0.01 | 0.01 | 82 | 1018.8 |
| 20260902220521 | 66 | 225 | 7.0 | 14.0 | 0.00 | 0.01 | 0.01 | 82 | 1018.8 |
| 20260902215519 | 67 | 225 | 6.0 | 12.0 | 0.00 | 0.01 | 0.01 | 81 | 1018.7 |
| 20260902214521 | 67 | 225 | 7.0 | 11.0 | 0.00 | 0.01 | 0.01 | 81 | 1018.8 |
| 20260902213531 | 67 | 225 | 7.0 | 12.0 | 0.00 | 0.01 | 0.01 | 81 | 1018.7 |
| 20260902212517 | 66 | 225 | 6.0 | 11.0 | 0.00 | 0.01 | 0.01 | 81 | 1018.8 |
| 20260902211517 | 67 | 225 | 7.0 | 13.0 | 0.00 | 0.01 | 0.01 | 81 | 1018.6 |
| 20260902210520 | 66 | 248 | 7.0 | 17.0 | 0.00 | 0.01 | 0.01 | 81 | 1018.5 |
| 20260902205518 | 66 | 225 | 7.0 | 16.0 | 0.00 | 0.01 | 0.01 | 80 | 1018.4 |
| 20260902204520 | 67 | 225 | 7.0 | 17.0 | 0.00 | 0.01 | 0.01 | 80 | 1018.4 |
| 20260902203518 | 67 | 225 | 8.0 | 14.0 | 0.00 | 0.01 | 0.01 | 79 | 1018.3 |
| 20260902202517 | 67 | 225 | 9.0 | 15.0 | 0.00 | 0.01 | 0.01 | 80 | 1018.4 |
| 20260902201522 | 67 | 248 | 6.0 | 11.0 | 0.00 | 0.01 | 0.01 | 80 | 1018.3 |
| 20260902200520 | 67 | 225 | 7.0 | 13.0 | 0.00 | 0.01 | 0.01 | 80 | 1018.3 |
| 20260902195538 | 67 | 225 | 7.0 | 13.0 | 0.00 | 0.01 | 0.01 | 80 | 1018.1 |
| 20260902194518 | 67 | 225 | 7.0 | 13.0 | 0.00 | 0.01 | 0.01 | 79 | 1017.8 |
| 20260902193539 | 67 | 248 | 8.0 | 15.0 | 0.00 | 0.01 | 0.01 | 79 | 1017.7 |
| 20260902192521 | 68 | 225 | 7.0 | 12.0 | 0.00 | 0.01 | 0.01 | 79 | 1017.9 |
| 20260902191519 | 68 | 225 | 7.0 | 13.0 | 0.00 | 0.01 | 0.01 | 79 | 1017.9 |
| 20260902190521 | 68 | 225 | 7.0 | 12.0 | 0.00 | 0.01 | 0.01 | 78 | 1017.9 |
| 20260902185519 | 69 | 248 | 6.0 | 11.0 | 0.00 | 0.01 | 0.01 | 78 | 1017.9 |
| 20260902184520 | 69 | 248 | 5.0 | 10.0 | 0.00 | 0.01 | 0.01 | 77 | 1017.9 |
| 20260902183520 | 69 | 225 | 6.0 | 13.0 | 0.00 | 0.01 | 0.01 | 77 | 1017.9 |
| 20260902182522 | 69 | 225 | 8.0 | 15.0 | 0.00 | 0.01 | 0.01 | 77 | 1017.8 |
| 20260902181527 | 69 | 225 | 6.0 | 14.0 | 0.00 | 0.01 | 0.01 | 77 | 1017.6 |
| 20260902180522 | 70 | 248 | 8.0 | 14.0 | 0.00 | 0.01 | 0.01 | 76 | 1017.5 |
| 20260902175518 | 70 | 225 | 8.0 | 14.0 | 0.00 | 0.01 | 0.01 | 76 | 1017.7 |
| 20260902174521 | 70 | 225 | 9.0 | 16.0 | 0.00 | 0.01 | 0.01 | 76 | 1017.9 |
| 20260902173519 | 70 | 225 | 8.0 | 14.0 | 0.00 | 0.01 | 0.01 | 76 | 1017.7 |
| 20260902172519 | 70 | 225 | 9.0 | 15.0 | 0.00 | 0.01 | 0.01 | 76 | 1017.7 |
| 20260902171540 | 71 | 225 | 10.0 | 18.0 | 0.00 | 0.01 | 0.01 | 76 | 1017.4 |
| 20260902170518 | 71 | 248 | 11.0 | 19.0 | 0.00 | 0.01 | 0.01 | 76 | 1017.6 |
| 20260902165518 | 71 | 248 | 7.0 | 14.0 | 0.00 | 0.01 | 0.01 | 77 | 1017.6 |
| 20260902164520 | 71 | 248 | 10.0 | 17.0 | 0.00 | 0.01 | 0.01 | 77 | 1017.6 |
| 20260902163519 | 71 | 248 | 11.0 | 20.0 | 0.00 | 0.01 | 0.01 | 77 | 1017.5 |
| 20260902162519 | 71 | 248 | 10.0 | 17.0 | 0.00 | 0.01 | 0.01 | 79 | 1017.5 |
| 20260902161539 | 71 | 248 | 5.0 | 11.0 | 0.00 | 0.01 | 0.01 | 81 | 1017.5 |
| 20260902160519 | 71 | 225 | 7.0 | 12.0 | 0.00 | 0.01 | 0.01 | 81 | 1017.5 |
| 20260902155517 | 71 | 225 | 8.0 | 16.0 | 0.00 | 0.01 | 0.01 | 82 | 1017.3 |
| 20260902154518 | 71 | 225 | 6.0 | 12.0 | 0.00 | 0.01 | 0.01 | 85 | 1017.3 |
| 20260902153540 | 70 | 225 | 6.0 | 11.0 | 0.00 | 0.01 | 0.01 | 83 | 1017.4 |
| 20260902152519 | 71 | 225 | 9.0 | 16.0 | 0.00 | 0.01 | 0.01 | 80 | 1017.5 |
| 20260902151519 | 72 | 225 | 6.0 | 14.0 | 0.00 | 0.01 | 0.01 | 78 | 1017.6 |
| 20260902150519 | 72 | 225 | 8.0 | 15.0 | 0.00 | 0.01 | 0.01 | 77 | 1017.5 |
| 20260902145520 | 72 | 203 | 8.0 | 13.0 | 0.00 | 0.01 | 0.01 | 76 | 1017.4 |
| 20260902144519 | 72 | 203 | 11.0 | 18.0 | 0.00 | 0.01 | 0.01 | 75 | 1017.6 |
| 20260902143520 | 73 | 203 | 9.0 | 16.0 | 0.00 | 0.01 | 0.01 | 75 | 1017.7 |
| 20260902142538 | 74 | 203 | 11.0 | 23.0 | 0.00 | 0.01 | 0.01 | 72 | 1017.6 |
| 20260902141521 | 75 | 225 | 11.0 | 22.0 | 0.00 | 0.01 | 0.01 | 71 | 1017.8 |
| 20260902140520 | 75 | 203 | 13.0 | 23.0 | 0.00 | 0.01 | 0.01 | 71 | 1017.8 |
| 20260902135539 | 75 | 203 | 10.0 | 19.0 | 0.00 | 0.01 | 0.01 | 71 | 1017.8 |
| 20260902134521 | 74 | 203 | 12.0 | 21.0 | 0.00 | 0.01 | 0.01 | 73 | 1017.7 |
| 20260902133536 | 74 | 203 | 11.0 | 19.0 | 0.00 | 0.01 | 0.01 | 72 | 1017.8 |
| 20260902132516 | 73 | 203 | 9.0 | 16.0 | 0.00 | 0.01 | 0.01 | 74 | 1018.0 |
| 20260902131517 | 72 | 203 | 12.0 | 20.0 | 0.00 | 0.01 | 0.01 | 76 | 1018.2 |
| 20260902130540 | 71 | 203 | 11.0 | 22.0 | 0.00 | 0.01 | 0.01 | 75 | 1018.2 |
| 20260902125520 | 71 | 203 | 11.0 | 18.0 | 0.00 | 0.01 | 0.01 | 76 | 1018.2 |
| 20260902124540 | 71 | 203 | 11.0 | 24.0 | 0.00 | 0.01 | 0.01 | 76 | 1018.1 |
| 20260902123538 | 71 | 203 | 11.0 | 22.0 | 0.00 | 0.01 | 0.01 | 76 | 1018.0 |
| 20260902122520 | 71 | 203 | 13.0 | 24.0 | 0.00 | 0.01 | 0.01 | 75 | 1018.2 |
| 20260902121520 | 71 | 203 | 11.0 | 22.0 | 0.00 | 0.01 | 0.01 | 76 | 1018.4 |
| 20260902120519 | 71 | 203 | 12.0 | 21.0 | 0.00 | 0.01 | 0.01 | 75 | 1018.3 |
| 20260902115518 | 71 | 203 | 14.0 | 26.0 | 0.00 | 0.01 | 0.01 | 77 | 1018.5 |
| 20260902114524 | 70 | 203 | 9.0 | 16.0 | 0.00 | 0.01 | 0.01 | 78 | 1018.7 |
| 20260902113520 | 68 | 203 | 10.0 | 21.0 | 0.00 | 0.01 | 0.01 | 81 | 1018.5 |
| 20260902112526 | 68 | 203 | 10.0 | 19.0 | 0.00 | 0.01 | 0.01 | 79 | 1018.7 |
| 20260902111526 | 68 | 203 | 13.0 | 20.0 | 0.00 | 0.01 | 0.01 | 78 | 1018.6 |
| 20260902110519 | 68 | 203 | 13.0 | 26.0 | 0.00 | 0.01 | 0.01 | 80 | 1018.9 |
| 20260902105549 | 69 | 225 | 9.0 | 17.0 | 0.00 | 0.01 | 0.01 | 77 | 1019.1 |
| 20260902104527 | 69 | 203 | 12.0 | 20.0 | 0.00 | 0.01 | 0.01 | 76 | 1019.0 |
| 20260902103518 | 69 | 203 | 10.0 | 23.0 | 0.00 | 0.01 | 0.01 | 76 | 1018.9 |
| 20260902102523 | 69 | 225 | 10.0 | 20.0 | 0.00 | 0.01 | 0.01 | 77 | 1018.9 |
| 20260902101522 | 68 | 225 | 9.0 | 17.0 | 0.00 | 0.01 | 0.01 | 79 | 1019.1 |
| 20260902100520 | 67 | 203 | 10.0 | 21.0 | 0.00 | 0.01 | 0.01 | 79 | 1019.0 |
| 20260902095519 | 67 | 203 | 8.0 | 18.0 | 0.00 | 0.01 | 0.01 | 79 | 1019.1 |
| 20260902094519 | 66 | 203 | 7.0 | 14.0 | 0.00 | 0.01 | 0.01 | 81 | 1019.1 |
| 20260902093523 | 66 | 225 | 8.0 | 17.0 | 0.00 | 0.01 | 0.01 | 82 | 1019.1 |
| 20260902092522 | 65 | 203 | 9.0 | 17.0 | 0.00 | 0.01 | 0.01 | 82 | 1019.1 |
| 20260902091518 | 65 | 203 | 8.0 | 13.0 | 0.00 | 0.01 | 0.01 | 84 | 1018.9 |
| 20260902090520 | 64 | 203 | 7.0 | 11.0 | 0.00 | 0.01 | 0.01 | 87 | 1019.2 |
| 20260902085523 | 63 | 203 | 10.0 | 17.0 | 0.01 | 0.01 | 0.01 | 86 | 1019.5 |
| 20260902084539 | 63 | 203 | 7.0 | 11.0 | 0.01 | 0.01 | 0.01 | 87 | 1019.5 |
| 20260902083518 | 62 | 203 | 4.0 | 9.0 | 0.01 | 0.01 | 0.01 | 87 | 1019.4 |
| 20260902082519 | 62 | 225 | 3.0 | 6.0 | 0.01 | 0.01 | 0.01 | 87 | 1019.4 |
| 20260902081602 | 63 | 225 | 5.0 | 9.0 | 0.01 | 0.01 | 0.01 | 88 | 1019.4 |
| 20260902080518 | 63 | 203 | 5.0 | 9.0 | 0.01 | 0.01 | 0.01 | 88 | 1019.5 |
| 20260902075521 | 63 | 225 | 6.0 | 12.0 | 0.00 | 0.00 | 0.00 | 87 | 1019.5 |
| 20260902074521 | 63 | 203 | 7.0 | 14.0 | 0.00 | 0.00 | 0.00 | 87 | 1019.4 |
| 20260902073524 | 63 | 225 | 6.0 | 12.0 | 0.00 | 0.00 | 0.00 | 86 | 1019.4 |
| 20260902072520 | 63 | 203 | 7.0 | 13.0 | 0.00 | 0.00 | 0.00 | 86 | 1019.4 |
| 20260902071520 | 63 | 203 | 4.0 | 6.0 | 0.00 | 0.00 | 0.00 | 87 | 1019.3 |
| 20260902070520 | 62 | 203 | 6.0 | 11.0 | 0.00 | 0.00 | 0.00 | 87 | 1019.6 |
| 20260902065520 | 62 | 203 | 6.0 | 12.0 | 0.00 | 0.00 | 0.00 | 88 | 1019.6 |
| 20260902064519 | 62 | 203 | 4.0 | 8.0 | 0.00 | 0.00 | 0.00 | 88 | 1019.5 |
| 20260902063520 | 62 | 203 | 3.0 | 5.0 | 0.00 | 0.00 | 0.00 | 88 | 1019.5 |
| 20260902062520 | 62 | 203 | 6.0 | 12.0 | 0.00 | 0.00 | 0.00 | 88 | 1019.5 |
| 20260902060542 | 61 | 203 | 3.0 | 6.0 | 0.00 | 0.00 | 0.00 | 87 | 1019.3 |
| 20260902055520 | 61 | 203 | 5.0 | 11.0 | 0.00 | 0.00 | 0.00 | 87 | 1019.5 |
| 20260902054520 | 61 | 203 | 5.0 | 9.0 | 0.00 | 0.00 | 0.00 | 87 | 1019.6 |
| 20260902053520 | 61 | 203 | 4.0 | 8.0 | 0.00 | 0.00 | 0.00 | 87 | 1019.6 |
| 20260902052520 | 60 | 225 | 4.0 | 7.0 | 0.00 | 0.00 | 0.00 | 88 | 1019.6 |
| 20260902051541 | 60 | 225 | 4.0 | 9.0 | 0.00 | 0.00 | 0.00 | 89 | 1019.5 |
| 20260902050522 | 59 | 225 | 3.0 | 6.0 | 0.00 | 0.00 | 0.00 | 90 | 1019.5 |
| 20260902045518 | 59 | 0.0 | 2.0 | 0.00 | 0.00 | 0.00 | 89 | 1019.5 | |
| 20260902044521 | 59 | 225 | 1.0 | 2.0 | 0.00 | 0.00 | 0.00 | 89 | 1019.5 |
| 20260902043518 | 59 | 0.0 | 1.0 | 0.00 | 0.00 | 0.00 | 89 | 1019.6 | |
| 20260902042521 | 59 | 0.0 | 2.0 | 0.00 | 0.00 | 0.00 | 89 | 1019.7 | |
| 20260902041519 | 59 | 225 | 1.0 | 2.0 | 0.00 | 0.00 | 0.00 | 88 | 1019.7 |
| 20260902040519 | 59 | 0.0 | 0.0 | 0.00 | 0.00 | 0.00 | 88 | 1019.8 | |
| 20260902035520 | 59 | 0.0 | 3.0 | 0.00 | 0.00 | 0.00 | 88 | 1020.0 | |
| 20260902034519 | 59 | 0.0 | 2.0 | 0.00 | 0.00 | 0.00 | 89 | 1020.0 | |
| 20260902033519 | 59 | 0.0 | 2.0 | 0.00 | 0.00 | 0.00 | 89 | 1020.1 | |
| 20260902032537 | 59 | 203 | 1.0 | 2.0 | 0.00 | 0.00 | 0.00 | 89 | 1020.3 |
| 20260902031519 | 59 | 203 | 1.0 | 3.0 | 0.00 | 0.00 | 0.00 | 89 | 1020.3 |
| 20260902030520 | 58 | 203 | 1.0 | 2.0 | 0.00 | 0.00 | 0.00 | 89 | 1020.3 |
| 20260902025539 | 58 | 0.0 | 0.0 | 0.00 | 0.00 | 0.00 | 88 | 1020.5 | |
| 20260902024520 | 58 | 0.0 | 1.0 | 0.00 | 0.00 | 0.00 | 88 | 1020.4 | |
| 20260902023520 | 58 | 0.0 | 1.0 | 0.00 | 0.00 | 0.00 | 88 | 1020.6 | |
| 20260902022518 | 58 | 0.0 | 0.0 | 0.00 | 0.00 | 0.00 | 89 | 1020.7 | |
| 20260902021518 | 58 | 0.0 | 1.0 | 0.00 | 0.00 | 0.00 | 88 | 1020.8 | |
| 20260902020520 | 58 | 203 | 1.0 | 2.0 | 0.00 | 0.00 | 0.00 | 89 | 1020.7 |
| 20260902015523 | 58 | 0.0 | 1.0 | 0.00 | 0.00 | 0.00 | 88 | 1020.7 | |
| 20260902014520 | 58 | 0.0 | 2.0 | 0.00 | 0.00 | 0.00 | 88 | 1021.0 | |
| 20260902013520 | 58 | 203 | 1.0 | 2.0 | 0.00 | 0.00 | 0.00 | 88 | 1021.2 |
| 20260902012520 | 58 | 0.0 | 1.0 | 0.00 | 0.00 | 0.00 | 87 | 1021.2 | |
| 20260902011543 | 58 | 0.0 | 0.0 | 0.00 | 0.00 | 0.00 | 86 | 1021.3 | |
| 20260902010517 | 58 | 0.0 | 0.0 | 0.00 | 0.00 | 0.00 | 85 | 1021.3 | |
| 20260902005517 | 59 | 0.0 | 1.0 | 0.00 | 0.00 | 0.00 | 85 | 1021.3 | |
| 20260902004517 | 59 | 0.0 | 0.0 | 0.00 | 0.00 | 0.00 | 85 | 1021.3 | |
| 20260902003517 | 60 | 0.0 | 0.0 | 0.00 | 0.00 | 0.00 | 85 | 1021.4 | |
| 20260902002520 | 60 | 0.0 | 0.0 | 0.00 | 0.00 | 0.00 | 85 | 1021.4 | |
| 20260902001519 | 60 | 0.0 | 0.0 | 0.00 | 0.00 | 0.00 | 85 | 1021.5 | |
| 20260902000517 | 60 | 203 | 1.0 | 2.0 | 0.00 | 0.00 | 0.00 | 84 | 1021.6 |
| 20260901235517 | 60 | 0.0 | 0.0 | 0.00 | 0.00 | 0.00 | 84 | 1021.6 |